Time,TemperatureF,DewpointF,PressureIn,WindDirection,WindDirectionDegrees,WindSpeedMPH,WindSpeedGustMPH,Humidity,HourlyPrecipIn,Conditions,Clouds,dailyrainin,SoftwareType,DateUTC
2015-02-28 00:00:00,0.0,-9.3,24.33,WSW,238,0.0,0.0,64,0.00,,---,0.00,VWS V15.00,2015-02-28 07:00:00,
2015-02-28 00:01:00,0.0,-9.3,24.33,WSW,238,0.0,0.0,64,0.00,,---,0.00,VWS V15.00,2015-02-28 07:01:00,
2015-02-28 00:02:00,0.0,-9.3,24.33,WSW,238,0.0,0.0,64,0.00,,---,0.00,VWS V15.00,2015-02-28 07:02:00,
2015-02-28 00:03:00,0.0,-9.3,24.33,WSW,238,0.0,0.0,64,0.00,,---,0.00,VWS V15.00,2015-02-28 07:03:00,
2015-02-28 00:04:00,0.0,-9.3,24.33,WSW,238,0.0,0.0,64,0.00,,---,0.00,VWS V15.00,2015-02-28 07:04:00,
2015-02-28 00:05:00,0.0,-9.3,24.33,WSW,238,0.0,0.0,64,0.00,,---,0.00,VWS V15.00,2015-02-28 07:05:00,
2015-02-28 00:06:00,0.0,-9.3,24.33,WSW,238,0.0,0.0,64,0.00,,---,0.00,VWS V15.00,2015-02-28 07:06:00,
2015-02-28 00:07:00,0.0,-9.3,24.33,WSW,238,0.0,0.0,64,0.00,,---,0.00,VWS V15.00,2015-02-28 07:07:00,
2015-02-28 00:08:00,0.0,-9.3,24.33,WSW,238,0.0,0.0,64,0.00,,---,0.00,VWS V15.00,2015-02-28 07:08:00,
2015-02-28 00:09:00,0.0,-9.3,24.33,WSW,238,0.0,0.0,64,0.00,,---,0.00,VWS V15.00,2015-02-28 07:09:00,
2015-02-28 00:10:00,0.0,-9.3,24.27,WSW,238,0.0,0.0,64,0.00,,---,0.00,VWS V15.00,2015-02-28 07:10:00,
2015-02-28 00:11:00,0.0,-9.3,24.27,WSW,238,0.0,0.0,64,0.00,,---,0.00,VWS V15.00,2015-02-28 07:11:00,
2015-02-28 00:12:00,0.0,-9.3,24.27,WSW,238,0.0,0.0,64,0.00,,---,0.00,VWS V15.00,2015-02-28 07:12:00,
2015-02-28 00:13:00,0.0,-9.3,24.27,WSW,238,0.0,0.0,64,0.00,,---,0.00,VWS V15.00,2015-02-28 07:13:00,
2015-02-28 00:14:00,0.0,-9.3,24.27,WSW,238,0.0,0.0,64,0.00,,---,0.00,VWS V15.00,2015-02-28 07:14:00,
2015-02-28 00:15:00,0.0,-9.3,24.27,WSW,238,0.0,0.0,64,0.00,,---,0.00,VWS V15.00,2015-02-28 07:15:00,
2015-02-28 00:16:00,0.0,-9.3,24.27,WSW,238,0.0,0.0,64,0.00,,---,0.00,VWS V15.00,2015-02-28 07:16:00,
2015-02-28 00:17:00,0.0,-9.3,24.27,WSW,238,0.0,0.0,64,0.00,,---,0.00,VWS V15.00,2015-02-28 07:17:00,
2015-02-28 00:18:00,0.0,-9.3,24.27,WSW,238,0.0,0.0,64,0.00,,---,0.00,VWS V15.00,2015-02-28 07:18:00,
2015-02-28 00:19:00,0.0,-9.3,24.27,WSW,238,0.0,0.0,64,0.00,,---,0.00,VWS V15.00,2015-02-28 07:19:00,
2015-02-28 00:20:00,0.0,-9.3,24.27,WSW,238,0.0,0.0,64,0.00,,---,0.00,VWS V15.00,2015-02-28 07:20:00,
2015-02-28 00:21:00,0.0,-9.3,24.27,WSW,238,0.0,0.0,64,0.00,,---,0.00,VWS V15.00,2015-02-28 07:21:00,
2015-02-28 00:22:00,0.0,-9.3,24.27,WSW,238,0.0,0.0,64,0.00,,---,0.00,VWS V15.00,2015-02-28 07:22:00,
2015-02-28 00:23:00,0.0,-9.3,24.27,WSW,238,0.0,0.0,64,0.00,,---,0.00,VWS V15.00,2015-02-28 07:23:00,
2015-02-28 00:24:00,0.0,-9.3,24.27,WSW,238,0.0,0.0,64,0.00,,---,0.00,VWS V15.00,2015-02-28 07:24:00,
2015-02-28 00:25:00,0.0,-9.3,24.22,WSW,238,0.0,0.0,64,0.00,,---,0.00,VWS V15.00,2015-02-28 07:25:00,
2015-02-28 00:26:00,0.0,-9.3,24.22,WSW,238,0.0,0.0,64,0.00,,---,0.00,VWS V15.00,2015-02-28 07:26:00,
2015-02-28 00:27:00,0.0,-9.3,24.22,WSW,238,0.0,0.0,64,0.00,,---,0.00,VWS V15.00,2015-02-28 07:27:00,
2015-02-28 00:28:00,0.0,-9.3,24.21,WSW,238,0.0,0.0,64,0.00,,---,0.00,VWS V15.00,2015-02-28 07:28:00,
2015-02-28 00:29:00,0.0,-9.3,24.22,WSW,238,0.0,0.0,64,0.00,,---,0.00,VWS V15.00,2015-02-28 07:29:00,
2015-02-28 00:30:00,0.0,-9.3,24.22,WSW,238,0.0,0.0,64,0.00,,---,0.00,VWS V15.00,2015-02-28 07:30:00,
2015-02-28 00:31:00,0.0,-9.3,24.22,WSW,238,0.0,0.0,64,0.00,,---,0.00,VWS V15.00,2015-02-28 07:31:00,
2015-02-28 00:32:00,0.0,-9.3,24.22,WSW,238,0.0,0.0,64,0.00,,---,0.00,VWS V15.00,2015-02-28 07:32:00,
2015-02-28 00:33:00,0.1,-9.1,24.21,WSW,238,0.0,0.0,64,0.00,,---,0.00,VWS V15.00,2015-02-28 07:33:00,
2015-02-28 00:34:00,0.1,-9.1,24.22,WSW,238,0.0,0.0,64,0.00,,---,0.00,VWS V15.00,2015-02-28 07:34:00,
2015-02-28 00:35:00,0.1,-9.1,24.22,WSW,238,0.0,0.0,64,0.00,,---,0.00,VWS V15.00,2015-02-28 07:35:00,
2015-02-28 00:36:00,0.1,-9.1,24.22,WSW,238,0.0,0.0,64,0.00,,---,0.00,VWS V15.00,2015-02-28 07:36:00,
2015-02-28 00:37:00,0.1,-9.1,24.22,WSW,238,0.0,0.0,64,0.00,,---,0.00,VWS V15.00,2015-02-28 07:37:00,
2015-02-28 00:38:00,0.1,-9.1,24.21,WSW,238,0.0,0.0,64,0.00,,---,0.00,VWS V15.00,2015-02-28 07:38:00,
2015-02-28 00:39:00,0.1,-9.1,24.24,WSW,238,0.0,0.0,64,0.00,,---,0.00,VWS V15.00,2015-02-28 07:39:00,
2015-02-28 00:40:00,0.1,-9.1,24.24,WSW,238,0.0,0.0,64,0.00,,---,0.00,VWS V15.00,2015-02-28 07:40:00,
2015-02-28 00:41:00,0.1,-9.1,24.24,WSW,238,0.0,0.0,64,0.00,,---,0.00,VWS V15.00,2015-02-28 07:41:00,
2015-02-28 00:42:00,0.1,-9.1,24.24,WSW,238,0.0,0.0,64,0.00,,---,0.00,VWS V15.00,2015-02-28 07:42:00,
2015-02-28 00:43:00,0.1,-9.1,24.24,WSW,238,0.0,0.0,64,0.00,,---,0.00,VWS V15.00,2015-02-28 07:43:00,
2015-02-28 00:44:00,0.1,-9.1,24.24,WSW,238,0.0,0.0,64,0.00,,---,0.00,VWS V15.00,2015-02-28 07:44:00,
2015-02-28 00:45:00,0.1,-9.1,24.24,WSW,238,0.0,0.0,64,0.00,,---,0.00,VWS V15.00,2015-02-28 07:45:00,
2015-02-28 00:46:00,0.1,-9.1,24.24,WSW,238,0.0,0.0,64,0.00,,---,0.00,VWS V15.00,2015-02-28 07:46:00,
2015-02-28 00:47:00,0.1,-9.1,24.24,WSW,238,0.0,0.0,64,0.00,,---,0.00,VWS V15.00,2015-02-28 07:47:00,
2015-02-28 00:48:00,0.1,-9.1,24.24,WSW,238,0.0,0.0,64,0.00,,---,0.00,VWS V15.00,2015-02-28 07:48:00,
2015-02-28 00:49:00,0.1,-9.1,24.24,WSW,238,0.0,0.0,64,0.00,,---,0.00,VWS V15.00,2015-02-28 07:49:00,
2015-02-28 00:50:00,0.1,-9.1,24.24,WSW,238,0.0,0.0,64,0.00,,---,0.00,VWS V15.00,2015-02-28 07:50:00,
2015-02-28 00:51:00,0.1,-9.1,24.24,WSW,238,0.0,0.0,64,0.00,,---,0.00,VWS V15.00,2015-02-28 07:51:00,
2015-02-28 00:52:00,0.3,-9.0,24.24,WSW,238,0.0,0.0,64,0.00,,---,0.00,VWS V15.00,2015-02-28 07:52:00,
2015-02-28 00:53:00,0.3,-9.0,24.24,WSW,238,0.0,0.0,64,0.00,,---,0.00,VWS V15.00,2015-02-28 07:53:00,
2015-02-28 00:54:00,0.3,-9.0,24.42,WSW,238,0.0,0.0,64,0.00,,---,0.00,VWS V15.00,2015-02-28 07:54:00,
2015-02-28 00:55:00,0.3,-9.0,24.42,WSW,238,0.0,0.0,64,0.00,,---,0.00,VWS V15.00,2015-02-28 07:55:00,
2015-02-28 00:56:00,0.3,-9.0,24.42,WSW,238,0.0,0.0,64,0.00,,---,0.00,VWS V15.00,2015-02-28 07:56:00,
2015-02-28 00:57:00,0.3,-9.0,24.42,WSW,238,0.0,0.0,64,0.00,,---,0.00,VWS V15.00,2015-02-28 07:57:00,
2015-02-28 00:58:00,0.3,-9.0,24.42,WSW,238,0.0,0.0,64,0.00,,---,0.00,VWS V15.00,2015-02-28 07:58:00,
2015-02-28 00:59:00,0.3,-9.0,24.42,WSW,238,0.0,0.0,64,0.00,,---,0.00,VWS V15.00,2015-02-28 07:59:00,
2015-02-28 01:00:00,0.3,-9.0,24.42,WSW,238,0.0,0.0,64,0.00,,---,0.00,VWS V15.00,2015-02-28 08:00:00,
2015-02-28 01:01:00,0.3,-9.0,24.42,WSW,238,0.0,0.0,64,0.00,,---,0.00,VWS V15.00,2015-02-28 08:01:00,
2015-02-28 01:02:00,0.5,-8.8,24.42,WSW,238,0.0,0.0,64,0.00,,---,0.00,VWS V15.00,2015-02-28 08:02:00,
2015-02-28 01:03:00,0.5,-8.8,24.42,WSW,238,0.0,0.0,64,0.00,,---,0.00,VWS V15.00,2015-02-28 08:03:00,
2015-02-28 01:04:00,0.5,-8.8,24.42,WSW,238,0.0,0.0,64,0.00,,---,0.00,VWS V15.00,2015-02-28 08:04:00,
2015-02-28 01:05:00,0.5,-8.8,24.42,WSW,238,0.0,0.0,64,0.00,,---,0.00,VWS V15.00,2015-02-28 08:05:00,
2015-02-28 01:06:00,0.5,-8.8,24.42,WSW,238,0.0,0.0,64,0.00,,---,0.00,VWS V15.00,2015-02-28 08:06:00,
2015-02-28 01:07:00,0.7,-8.6,24.42,WSW,238,0.0,0.0,64,0.00,,---,0.00,VWS V15.00,2015-02-28 08:07:00,
2015-02-28 01:08:00,0.7,-8.6,24.42,WSW,238,0.0,0.0,64,0.00,,---,0.00,VWS V15.00,2015-02-28 08:08:00,
2015-02-28 01:09:00,0.7,-8.6,24.42,WSW,238,0.0,0.0,64,0.00,,---,0.00,VWS V15.00,2015-02-28 08:09:00,
2015-02-28 01:10:00,0.7,-8.6,24.18,WSW,238,0.0,0.0,64,0.00,,---,0.00,VWS V15.00,2015-02-28 08:10:00,
2015-02-28 01:11:00,0.7,-8.6,24.18,WSW,238,0.0,0.0,64,0.00,,---,0.00,VWS V15.00,2015-02-28 08:11:00,
2015-02-28 01:12:00,0.7,-8.6,24.18,WSW,238,0.0,0.0,64,0.00,,---,0.00,VWS V15.00,2015-02-28 08:12:00,
2015-02-28 01:13:00,0.9,-8.4,24.19,WSW,238,0.0,0.0,64,0.00,,---,0.00,VWS V15.00,2015-02-28 08:13:00,
2015-02-28 01:14:00,0.9,-8.4,24.18,WSW,238,0.0,0.0,64,0.00,,---,0.00,VWS V15.00,2015-02-28 08:14:00,
2015-02-28 01:15:00,0.9,-8.4,24.18,WSW,238,0.0,0.0,64,0.00,,---,0.00,VWS V15.00,2015-02-28 08:15:00,
2015-02-28 01:16:00,0.9,-8.4,24.18,WSW,238,0.0,0.0,64,0.00,,---,0.00,VWS V15.00,2015-02-28 08:16:00,
2015-02-28 01:17:00,0.9,-8.4,24.18,WSW,238,0.0,0.0,64,0.00,,---,0.00,VWS V15.00,2015-02-28 08:17:00,
2015-02-28 01:18:00,0.9,-8.4,24.19,WSW,238,0.0,0.0,64,0.00,,---,0.00,VWS V15.00,2015-02-28 08:18:00,
2015-02-28 01:19:00,0.9,-8.4,24.18,WSW,238,0.0,0.0,64,0.00,,---,0.00,VWS V15.00,2015-02-28 08:19:00,
2015-02-28 01:20:00,0.9,-8.4,24.18,WSW,238,0.0,0.0,64,0.00,,---,0.00,VWS V15.00,2015-02-28 08:20:00,
2015-02-28 01:23:00,0.9,-8.4,24.07,WSW,238,0.0,0.0,64,0.00,,---,0.00,VWS V15.00,2015-02-28 08:23:00,
2015-02-28 01:29:00,0.7,-8.6,24.07,West,278,0.0,0.0,64,0.00,,---,0.00,VWS V15.00,2015-02-28 08:29:00,
2015-02-28 01:35:00,0.9,-8.4,24.07,West,278,0.0,0.0,64,0.00,,---,0.00,VWS V15.00,2015-02-28 08:35:00,
2015-02-28 01:40:00,0.7,-8.6,24.21,West,278,0.0,0.0,64,0.00,,---,0.00,VWS V15.00,2015-02-28 08:40:00,
2015-02-28 01:46:00,0.7,-8.6,24.21,West,278,0.0,0.0,64,0.00,,---,0.00,VWS V15.00,2015-02-28 08:46:00,
2015-02-28 01:52:00,0.7,-8.6,24.21,WSW,245,0.0,0.0,64,0.00,,---,0.00,VWS V15.00,2015-02-28 08:52:00,
2015-02-28 01:57:00,0.7,-8.6,24.75,WSW,245,0.0,0.0,64,0.00,,---,0.00,VWS V15.00,2015-02-28 08:57:00,
2015-02-28 02:02:00,0.7,-8.6,24.75,WSW,245,0.0,0.0,64,0.00,,---,0.00,VWS V15.00,2015-02-28 09:02:00,
2015-02-28 02:08:00,0.7,-8.6,24.19,WSW,245,0.0,0.0,64,0.00,,---,0.00,VWS V15.00,2015-02-28 09:08:00,
2015-02-28 02:13:00,0.9,-8.4,24.19,WSW,245,0.0,0.0,64,0.00,,---,0.00,VWS V15.00,2015-02-28 09:13:00,
2015-02-28 02:18:00,0.7,-8.6,24.19,WSW,245,0.0,0.0,64,0.00,,---,0.00,VWS V15.00,2015-02-28 09:18:00,
2015-02-28 02:23:00,0.7,-8.6,24.07,WSW,245,0.0,0.0,64,0.00,,---,0.00,VWS V15.00,2015-02-28 09:23:00,
2015-02-28 02:28:00,0.7,-8.6,24.07,WSW,245,0.0,0.0,64,0.00,,---,0.00,VWS V15.00,2015-02-28 09:28:00,
2015-02-28 02:34:00,0.9,-8.4,24.07,WSW,245,0.0,0.0,64,0.00,,---,0.00,VWS V15.00,2015-02-28 09:34:00,
2015-02-28 02:39:00,0.9,-8.4,24.04,WSW,245,0.0,0.0,64,0.00,,---,0.00,VWS V15.00,2015-02-28 09:39:00,
2015-02-28 02:44:00,0.9,-8.4,24.04,WSW,245,0.0,0.0,64,0.00,,---,0.00,VWS V15.00,2015-02-28 09:44:00,
2015-02-28 02:49:00,1.0,-8.3,24.04,WSW,245,0.0,0.0,64,0.00,,---,0.00,VWS V15.00,2015-02-28 09:49:00,
2015-02-28 02:54:00,1.0,-8.3,24.10,WSW,245,0.0,0.0,64,0.00,,---,0.00,VWS V15.00,2015-02-28 09:54:00,
2015-02-28 02:59:00,1.2,-8.1,24.10,WSW,245,0.0,0.0,64,0.00,,---,0.00,VWS V15.00,2015-02-28 09:59:00,
2015-02-28 03:05:00,1.2,-8.1,24.10,WSW,245,0.0,0.0,64,0.00,,---,0.00,VWS V15.00,2015-02-28 10:05:00,
2015-02-28 03:10:00,1.2,-8.1,24.33,WSW,245,0.0,0.0,64,0.00,,---,0.00,VWS V15.00,2015-02-28 10:10:00,
2015-02-28 03:15:00,1.0,-8.3,24.33,WSW,245,0.0,0.0,64,0.00,,---,0.00,VWS V15.00,2015-02-28 10:15:00,
2015-02-28 03:21:00,1.2,-8.1,24.33,WSW,245,0.0,0.0,64,0.00,,---,0.00,VWS V15.00,2015-02-28 10:21:00,
2015-02-28 03:27:00,1.2,-8.1,24.24,WSW,245,0.0,0.0,64,0.00,,---,0.00,VWS V15.00,2015-02-28 10:27:00,
2015-02-28 03:32:00,1.2,-8.1,24.24,WSW,245,0.0,0.0,64,0.00,,---,0.00,VWS V15.00,2015-02-28 10:32:00,
2015-02-28 03:38:00,1.4,-7.9,24.33,WSW,245,0.0,0.0,64,0.00,,---,0.00,VWS V15.00,2015-02-28 10:38:00,
2015-02-28 03:44:00,1.6,-7.8,24.33,WSW,245,0.0,0.0,64,0.00,,---,0.00,VWS V15.00,2015-02-28 10:44:00,
2015-02-28 03:49:00,1.6,-7.8,24.33,WSW,245,0.0,0.0,64,0.00,,---,0.00,VWS V15.00,2015-02-28 10:49:00,
2015-02-28 03:54:00,1.6,-7.8,24.07,WSW,245,0.0,0.0,64,0.00,,---,0.00,VWS V15.00,2015-02-28 10:54:00,
2015-02-28 03:59:00,1.6,-7.8,24.07,WSW,245,0.0,0.0,64,0.00,,---,0.00,VWS V15.00,2015-02-28 10:59:00,
2015-02-28 04:04:00,1.6,-7.8,24.07,WSW,245,0.0,0.0,64,0.00,,---,0.00,VWS V15.00,2015-02-28 11:04:00,
2015-02-28 04:09:00,1.6,-7.8,24.21,WSW,245,0.0,0.0,64,0.00,,---,0.00,VWS V15.00,2015-02-28 11:09:00,
2015-02-28 04:14:00,1.6,-7.8,24.21,WSW,245,0.0,0.0,64,0.00,,---,0.00,VWS V15.00,2015-02-28 11:14:00,
2015-02-28 04:19:00,1.6,-7.8,24.21,WSW,245,0.0,0.0,64,0.00,,---,0.00,VWS V15.00,2015-02-28 11:19:00,
2015-02-28 04:25:00,1.6,-7.8,24.24,WSW,245,0.0,0.0,64,0.00,,---,0.00,VWS V15.00,2015-02-28 11:25:00,
2015-02-28 04:30:00,1.6,-7.8,24.24,WSW,245,0.0,0.0,64,0.00,,---,0.00,VWS V15.00,2015-02-28 11:30:00,
2015-02-28 04:35:00,1.8,-7.6,24.24,WSW,245,0.0,0.0,64,0.00,,---,0.00,VWS V15.00,2015-02-28 11:35:00,
2015-02-28 04:40:00,2.1,-7.2,24.39,WSW,245,0.0,0.0,64,0.00,,---,0.00,VWS V15.00,2015-02-28 11:40:00,
2015-02-28 04:45:00,2.3,-7.1,24.39,WSW,245,0.0,0.0,64,0.00,,---,0.00,VWS V15.00,2015-02-28 11:45:00,
2015-02-28 04:50:00,2.5,-6.9,24.39,WSW,245,0.0,0.0,64,0.00,,---,0.00,VWS V15.00,2015-02-28 11:50:00,
2015-02-28 04:55:00,2.7,-6.7,24.30,WSW,245,0.0,0.0,64,0.00,,---,0.00,VWS V15.00,2015-02-28 11:55:00,
2015-02-28 05:00:00,2.8,-6.6,24.30,WSW,245,0.0,0.0,64,0.00,,---,0.00,VWS V15.00,2015-02-28 12:00:00,
2015-02-28 05:05:00,2.8,-6.6,24.30,WSW,245,0.0,0.0,64,0.00,,---,0.00,VWS V15.00,2015-02-28 12:05:00,
2015-02-28 05:10:00,3.0,-6.4,24.24,WSW,245,0.0,0.0,64,0.00,,---,0.00,VWS V15.00,2015-02-28 12:10:00,
2015-02-28 05:15:00,3.0,-6.4,24.24,WSW,245,0.0,0.0,64,0.00,,---,0.00,VWS V15.00,2015-02-28 12:15:00,
2015-02-28 05:20:00,2.8,-6.6,24.24,WSW,245,0.0,0.0,64,0.00,,---,0.00,VWS V15.00,2015-02-28 12:20:00,
2015-02-28 05:25:00,2.8,-6.6,24.19,WSW,245,0.0,0.0,64,0.00,,---,0.00,VWS V15.00,2015-02-28 12:25:00,
2015-02-28 05:30:00,2.8,-6.6,24.19,WSW,245,0.0,0.0,64,0.00,,---,0.00,VWS V15.00,2015-02-28 12:30:00,
2015-02-28 05:35:00,2.8,-6.6,24.19,WSW,245,0.0,0.0,64,0.00,,---,0.00,VWS V15.00,2015-02-28 12:35:00,
2015-02-28 05:40:00,2.8,-6.6,24.33,WSW,245,0.0,0.0,64,0.00,,---,0.00,VWS V15.00,2015-02-28 12:40:00,
2015-02-28 05:45:00,2.8,-6.6,24.33,WSW,245,0.0,0.0,64,0.00,,---,0.00,VWS V15.00,2015-02-28 12:45:00,
2015-02-28 05:50:00,2.8,-6.6,24.33,WSW,245,0.0,0.0,64,0.00,,---,0.00,VWS V15.00,2015-02-28 12:50:00,
2015-02-28 05:55:00,2.7,-6.7,24.21,WSW,245,0.0,0.0,64,0.00,,---,0.00,VWS V15.00,2015-02-28 12:55:00,
2015-02-28 06:00:00,2.5,-6.9,24.21,WSW,245,0.0,0.0,64,0.00,,---,0.00,VWS V15.00,2015-02-28 13:00:00,
2015-02-28 06:05:00,2.5,-6.9,24.21,WSW,245,0.0,0.0,64,0.00,,---,0.00,VWS V15.00,2015-02-28 13:05:00,
2015-02-28 06:10:00,2.1,-7.2,24.54,WSW,245,0.0,0.0,64,0.00,,---,0.00,VWS V15.00,2015-02-28 13:10:00,
2015-02-28 06:16:00,1.9,-7.4,24.54,WSW,245,0.0,0.0,64,0.00,,---,0.00,VWS V15.00,2015-02-28 13:16:00,
2015-02-28 06:21:00,1.9,-7.4,24.54,WSW,245,0.0,0.0,64,0.00,,---,0.00,VWS V15.00,2015-02-28 13:21:00,
2015-02-28 06:26:00,1.8,-7.6,24.24,WSW,245,0.0,0.0,64,0.00,,---,0.00,VWS V15.00,2015-02-28 13:26:00,
2015-02-28 06:32:00,1.8,-7.6,24.24,WSW,245,0.0,0.0,64,0.00,,---,0.00,VWS V15.00,2015-02-28 13:32:00,
2015-02-28 06:37:00,1.6,-7.8,24.24,WSW,245,0.0,0.0,64,0.00,,---,0.00,VWS V15.00,2015-02-28 13:37:00,
2015-02-28 06:42:00,1.4,-7.9,24.16,WSW,245,0.0,0.0,64,0.00,,---,0.00,VWS V15.00,2015-02-28 13:42:00,
2015-02-28 06:47:00,1.2,-8.1,24.16,WSW,245,0.0,0.0,64,0.00,,---,0.00,VWS V15.00,2015-02-28 13:47:00,
2015-02-28 06:53:00,1.2,-8.1,24.21,WSW,245,0.0,0.0,64,0.00,,---,0.00,VWS V15.00,2015-02-28 13:53:00,
2015-02-28 06:58:00,1.2,-8.1,24.21,WSW,245,0.0,0.0,64,0.00,,---,0.00,VWS V15.00,2015-02-28 13:58:00,
2015-02-28 07:03:00,1.4,-7.9,24.21,WSW,245,0.0,0.0,64,0.00,,---,0.00,VWS V15.00,2015-02-28 14:03:00,
2015-02-28 07:08:00,1.4,-7.9,24.16,WSW,245,0.0,0.0,64,0.00,,---,0.00,VWS V15.00,2015-02-28 14:08:00,
2015-02-28 07:14:00,1.6,-7.8,24.16,WSW,245,0.0,0.0,64,0.00,,---,0.00,VWS V15.00,2015-02-28 14:14:00,
2015-02-28 07:19:00,1.6,-7.8,24.16,WSW,245,0.0,0.0,64,0.00,,---,0.00,VWS V15.00,2015-02-28 14:19:00,
2015-02-28 07:25:00,1.8,-7.6,24.21,WSW,245,0.0,0.0,64,0.00,,---,0.00,VWS V15.00,2015-02-28 14:25:00,
2015-02-28 07:30:00,2.1,-7.2,24.21,WSW,245,0.0,0.0,64,0.00,,---,0.00,VWS V15.00,2015-02-28 14:30:00,
2015-02-28 07:35:00,2.1,-7.2,24.21,WSW,245,0.0,0.0,64,0.00,,---,0.00,VWS V15.00,2015-02-28 14:35:00,
2015-02-28 07:41:00,2.3,-7.1,24.19,WSW,245,0.0,0.0,64,0.00,,---,0.00,VWS V15.00,2015-02-28 14:41:00,
2015-02-28 07:46:00,2.8,-6.6,24.19,WSW,245,0.0,0.0,64,0.00,,---,0.00,VWS V15.00,2015-02-28 14:46:00,
2015-02-28 07:51:00,4.1,-5.4,24.19,WSW,245,0.0,0.0,64,0.00,,---,0.00,VWS V15.00,2015-02-28 14:51:00,
2015-02-28 07:56:00,5.2,-4.3,24.57,WSW,245,0.0,0.0,64,0.00,,---,0.00,VWS V15.00,2015-02-28 14:56:00,
2015-02-28 08:01:00,6.1,-3.5,24.57,WSW,245,0.0,0.0,64,0.00,,---,0.00,VWS V15.00,2015-02-28 15:01:00,
2015-02-28 08:06:00,7.0,-2.6,24.57,WSW,245,0.0,0.0,64,0.00,,---,0.00,VWS V15.00,2015-02-28 15:06:00,
2015-02-28 08:11:00,8.1,-1.6,24.42,WSW,245,0.0,0.0,64,0.00,,---,0.00,VWS V15.00,2015-02-28 15:11:00,
2015-02-28 08:16:00,9.5,-0.2,24.42,WSW,245,0.0,0.0,64,0.00,,---,0.00,VWS V15.00,2015-02-28 15:16:00,
2015-02-28 08:21:00,10.9,1.2,24.42,WSW,245,0.0,0.0,64,0.00,,---,0.00,VWS V15.00,2015-02-28 15:21:00,
2015-02-28 08:26:00,12.0,2.2,24.27,WSW,245,0.0,0.0,64,0.00,,---,0.00,VWS V15.00,2015-02-28 15:26:00,
2015-02-28 08:31:00,13.5,3.6,24.27,WSW,245,0.0,0.0,64,0.00,,---,0.00,VWS V15.00,2015-02-28 15:31:00,
2015-02-28 08:36:00,14.9,7.2,24.27,WSW,245,0.0,0.0,71,0.00,,---,0.00,VWS V15.00,2015-02-28 15:36:00,
2015-02-28 08:41:00,16.7,9.6,24.16,WSW,245,0.0,0.0,73,0.00,,---,0.00,VWS V15.00,2015-02-28 15:41:00,
2015-02-28 08:47:00,18.7,12.1,24.16,WSW,245,0.0,0.0,75,0.00,,---,0.00,VWS V15.00,2015-02-28 15:47:00,
2015-02-28 08:52:00,20.3,14.0,24.16,WSW,245,0.0,0.0,76,0.00,,---,0.00,VWS V15.00,2015-02-28 15:52:00,
2015-02-28 08:57:00,21.2,15.1,24.72,WSW,245,0.0,0.0,77,0.00,,---,0.00,VWS V15.00,2015-02-28 15:57:00,
2015-02-28 09:02:00,21.7,15.6,24.72,ENE,70,0.0,0.0,77,0.00,,---,0.00,VWS V15.00,2015-02-28 16:02:00,
2015-02-28 09:07:00,22.6,17.1,24.72,ENE,63,0.0,0.0,79,0.00,,---,0.00,VWS V15.00,2015-02-28 16:07:00,
2015-02-28 09:12:00,22.8,17.3,24.33,ENE,64,4.9,4.9,79,0.00,,---,0.00,VWS V15.00,2015-02-28 16:12:00,
2015-02-28 09:17:00,22.8,17.0,24.33,NNE,12,3.1,3.1,78,0.00,,---,0.00,VWS V15.00,2015-02-28 16:17:00,
2015-02-28 09:22:00,22.3,13.7,24.33,NNE,19,4.9,5.8,69,0.00,,---,0.00,VWS V15.00,2015-02-28 16:22:00,
2015-02-28 09:28:00,22.3,14.0,24.24,NNE,28,3.6,5.8,70,0.00,,---,0.00,VWS V15.00,2015-02-28 16:28:00,
2015-02-28 09:33:00,22.1,13.8,24.24,NE,52,3.1,3.1,70,0.00,,---,0.00,VWS V15.00,2015-02-28 16:33:00,
2015-02-28 09:39:00,22.5,13.8,24.33,NNE,28,4.0,8.3,69,0.00,,---,0.00,VWS V15.00,2015-02-28 16:39:00,
2015-02-28 09:44:00,22.5,14.8,24.33,ESE,117,3.6,3.6,72,0.00,,---,0.00,VWS V15.00,2015-02-28 16:44:00,
2015-02-28 09:50:00,22.8,15.8,24.33,NE,38,5.8,6.3,74,0.00,,---,0.00,VWS V15.00,2015-02-28 16:50:00,
2015-02-28 09:55:00,22.3,13.3,24.39,NNE,18,3.6,4.0,68,0.00,,---,0.00,VWS V15.00,2015-02-28 16:55:00,
2015-02-28 10:00:00,22.1,14.5,24.39,ESE,115,3.6,4.0,72,0.00,,---,0.00,VWS V15.00,2015-02-28 17:00:00,
2015-02-28 10:06:00,22.1,11.4,24.39,North,11,7.6,8.7,63,0.00,,---,0.00,VWS V15.00,2015-02-28 17:06:00,
2015-02-28 10:11:00,21.4,6.5,24.57,NNE,32,5.8,8.1,52,0.00,,---,0.00,VWS V15.00,2015-02-28 17:11:00,
2015-02-28 10:16:00,21.2,5.9,24.57,NNE,20,5.8,8.1,51,0.00,,---,0.00,VWS V15.00,2015-02-28 17:16:00,
2015-02-28 10:21:00,20.7,4.5,24.57,NE,47,8.1,8.3,49,0.00,,---,0.00,VWS V15.00,2015-02-28 17:21:00,
2015-02-28 10:27:00,20.3,4.2,24.27,NNE,31,5.8,8.1,49,0.00,,---,0.00,VWS V15.00,2015-02-28 17:27:00,
2015-02-28 10:32:00,20.5,7.7,24.27,ENE,71,8.1,8.1,57,0.00,,---,0.00,VWS V15.00,2015-02-28 17:32:00,
2015-02-28 10:38:00,20.5,9.6,24.27,ENE,70,5.4,5.8,62,0.00,,---,0.00,VWS V15.00,2015-02-28 17:38:00,
2015-02-28 10:43:00,20.3,9.7,24.30,NNE,19,6.3,6.3,63,0.00,,---,0.00,VWS V15.00,2015-02-28 17:43:00,
2015-02-28 10:48:00,20.3,9.7,24.30,ENE,74,5.4,5.4,63,0.00,,---,0.00,VWS V15.00,2015-02-28 17:48:00,
2015-02-28 10:53:00,19.9,8.7,24.30,North,8,7.2,7.6,61,0.00,,---,0.00,VWS V15.00,2015-02-28 17:53:00,
2015-02-28 10:58:00,19.8,8.5,24.36,ENE,57,4.0,6.3,61,0.00,,---,0.00,VWS V15.00,2015-02-28 17:58:00,
2015-02-28 11:03:00,19.4,7.8,24.36,East,81,4.0,7.6,60,0.00,,---,0.00,VWS V15.00,2015-02-28 18:03:00,
2015-02-28 11:08:00,19.6,6.8,24.36,North,3,5.4,8.1,57,0.00,,---,0.00,VWS V15.00,2015-02-28 18:08:00,
2015-02-28 11:13:00,19.6,5.7,24.54,North,10,5.8,8.1,54,0.00,,---,0.00,VWS V15.00,2015-02-28 18:13:00,
2015-02-28 11:18:00,19.8,8.1,24.54,NE,45,7.6,7.6,60,0.00,,---,0.00,VWS V15.00,2015-02-28 18:18:00,
2015-02-28 11:23:00,20.3,9.0,24.54,NE,43,7.6,7.6,61,0.00,,---,0.00,VWS V15.00,2015-02-28 18:23:00,
2015-02-28 11:28:00,20.5,9.2,24.72,NE,42,4.9,9.6,61,0.00,,---,0.00,VWS V15.00,2015-02-28 18:28:00,
2015-02-28 11:33:00,20.7,9.0,24.72,NE,37,7.6,7.6,60,0.00,,---,0.00,VWS V15.00,2015-02-28 18:33:00,
2015-02-28 11:38:00,20.5,8.1,24.36,NNE,18,4.9,5.8,58,0.00,,---,0.00,VWS V15.00,2015-02-28 18:38:00,
2015-02-28 11:43:00,20.8,8.4,24.36,North,7,4.9,7.6,58,0.00,,---,0.00,VWS V15.00,2015-02-28 18:43:00,
2015-02-28 11:48:00,20.8,8.8,24.36,NE,38,5.4,7.6,59,0.00,,---,0.00,VWS V15.00,2015-02-28 18:48:00,
2015-02-28 11:53:00,20.8,8.4,24.42,NE,39,5.8,5.8,58,0.00,,---,0.00,VWS V15.00,2015-02-28 18:53:00,
2015-02-28 11:58:00,20.5,6.5,24.42,East,89,3.1,7.2,54,0.00,,---,0.00,VWS V15.00,2015-02-28 18:58:00,
2015-02-28 12:04:00,20.5,6.5,24.42,NNE,22,6.3,6.3,54,0.00,,---,0.00,VWS V15.00,2015-02-28 19:04:00,
2015-02-28 12:09:00,20.7,8.2,24.54,NNE,28,5.4,5.4,58,0.00,,---,0.00,VWS V15.00,2015-02-28 19:09:00,
2015-02-28 12:14:00,21.2,10.2,24.54,ENE,65,6.7,6.7,62,0.00,,---,0.00,VWS V15.00,2015-02-28 19:14:00,
2015-02-28 12:19:00,21.0,8.2,24.54,NE,39,4.9,6.3,57,0.00,,---,0.00,VWS V15.00,2015-02-28 19:19:00,
2015-02-28 12:24:00,20.8,9.2,24.83,NE,35,4.9,6.3,60,0.00,,---,0.00,VWS V15.00,2015-02-28 19:24:00,
2015-02-28 12:29:00,20.3,5.9,24.83,NNE,31,7.6,8.7,53,0.00,,---,0.00,VWS V15.00,2015-02-28 19:29:00,
2015-02-28 12:34:00,20.1,5.7,24.83,North,0,3.6,8.3,53,0.00,,---,0.00,VWS V15.00,2015-02-28 19:34:00,
2015-02-28 12:39:00,19.9,7.6,24.33,NNE,19,5.8,5.8,58,0.00,,---,0.00,VWS V15.00,2015-02-28 19:39:00,
2015-02-28 12:44:00,19.8,7.4,24.33,ENE,71,8.3,8.3,58,0.00,,---,0.00,VWS V15.00,2015-02-28 19:44:00,
2015-02-28 12:49:00,19.6,6.1,24.33,NNE,17,5.4,6.3,55,0.00,,---,0.00,VWS V15.00,2015-02-28 19:49:00,
2015-02-28 12:54:00,20.1,8.5,24.30,SSE,157,8.1,8.1,60,0.00,,---,0.00,VWS V15.00,2015-02-28 19:54:00,
2015-02-28 12:59:00,19.9,8.7,24.30,North,9,4.0,6.3,61,0.00,,---,0.00,VWS V15.00,2015-02-28 19:59:00,
2015-02-28 13:04:00,20.3,8.6,24.30,NE,37,5.4,7.6,60,0.00,,---,0.00,VWS V15.00,2015-02-28 20:04:00,
2015-02-28 13:09:00,20.5,9.2,24.45,North,7,8.1,11.9,61,0.00,,---,0.00,VWS V15.00,2015-02-28 20:09:00,
2015-02-28 13:14:00,20.3,7.1,24.45,NNE,16,6.3,8.1,56,0.00,,---,0.00,VWS V15.00,2015-02-28 20:14:00,
2015-02-28 13:19:00,20.5,7.3,24.45,NNE,27,5.4,9.6,56,0.00,,---,0.00,VWS V15.00,2015-02-28 20:19:00,
2015-02-28 13:24:00,21.2,8.4,24.42,NNE,20,10.1,10.1,57,0.00,,---,0.00,VWS V15.00,2015-02-28 20:24:00,
2015-02-28 13:29:00,21.4,8.1,24.42,NNE,32,5.8,5.8,56,0.00,,---,0.00,VWS V15.00,2015-02-28 20:29:00,
2015-02-28 13:34:00,21.0,6.2,24.42,North,8,7.2,7.2,52,0.00,,---,0.00,VWS V15.00,2015-02-28 20:34:00,
2015-02-28 13:39:00,20.5,7.7,24.81,NNE,33,0.0,2.2,57,0.00,,---,0.00,VWS V15.00,2015-02-28 20:39:00,
2015-02-28 13:44:00,19.9,6.0,24.81,NE,50,8.7,8.7,54,0.00,,---,0.00,VWS V15.00,2015-02-28 20:44:00,
2015-02-28 13:49:00,19.8,6.2,24.81,NNE,15,4.0,5.8,55,0.00,,---,0.00,VWS V15.00,2015-02-28 20:49:00,
2015-02-28 13:54:00,19.8,5.8,24.48,North,357,6.3,6.3,54,0.00,,---,0.00,VWS V15.00,2015-02-28 20:54:00,
2015-02-28 14:00:00,20.5,8.1,24.48,NE,45,9.2,9.2,58,0.00,,---,0.00,VWS V15.00,2015-02-28 21:00:00,
2015-02-28 14:05:00,20.8,8.0,24.48,NNE,29,6.3,6.3,57,0.00,,---,0.00,VWS V15.00,2015-02-28 21:05:00,
2015-02-28 14:11:00,21.2,8.4,24.45,NNE,22,4.0,7.6,57,0.00,,---,0.00,VWS V15.00,2015-02-28 21:11:00,
2015-02-28 14:16:00,21.2,6.3,24.45,North,11,8.1,10.1,52,0.00,,---,0.00,VWS V15.00,2015-02-28 21:16:00,
2015-02-28 14:22:00,21.6,8.7,24.45,NE,50,4.0,6.3,57,0.00,,---,0.00,VWS V15.00,2015-02-28 21:22:00,
2015-02-28 14:27:00,21.7,8.5,24.48,ENE,64,5.8,6.7,56,0.00,,---,0.00,VWS V15.00,2015-02-28 21:27:00,
2015-02-28 14:33:00,20.5,8.4,24.48,ENE,73,5.4,5.4,59,0.00,,---,0.00,VWS V15.00,2015-02-28 21:33:00,
2015-02-28 14:39:00,20.3,7.9,24.54,NNE,26,5.4,8.7,58,0.00,,---,0.00,VWS V15.00,2015-02-28 21:39:00,
2015-02-28 14:44:00,21.0,8.2,24.54,NNE,17,6.3,6.3,57,0.00,,---,0.00,VWS V15.00,2015-02-28 21:44:00,
2015-02-28 14:50:00,21.7,10.4,24.54,NNE,28,8.1,8.1,61,0.00,,---,0.00,VWS V15.00,2015-02-28 21:50:00,
2015-02-28 14:55:00,21.6,9.5,24.66,ENE,70,0.0,5.4,59,0.00,,---,0.00,VWS V15.00,2015-02-28 21:55:00,
2015-02-28 15:00:00,21.6,9.8,24.66,NE,38,0.0,0.0,60,0.00,,---,0.00,VWS V15.00,2015-02-28 22:00:00,
2015-02-28 15:05:00,21.2,10.2,24.66,North,353,3.6,3.6,62,0.00,,---,0.00,VWS V15.00,2015-02-28 22:05:00,
2015-02-28 15:11:00,21.2,10.6,24.42,East,98,0.0,8.1,63,0.00,,---,0.00,VWS V15.00,2015-02-28 22:11:00,
2015-02-28 15:17:00,21.2,10.6,24.42,North,4,7.2,8.1,63,0.00,,---,0.00,VWS V15.00,2015-02-28 22:17:00,
2015-02-28 15:22:00,20.7,9.4,24.42,East,87,2.2,5.4,61,0.00,,---,0.00,VWS V15.00,2015-02-28 22:22:00,
2015-02-28 15:28:00,19.9,8.7,24.78,ENE,60,5.4,8.3,61,0.00,,---,0.00,VWS V15.00,2015-02-28 22:28:00,
2015-02-28 15:33:00,19.6,8.7,24.78,North,357,5.4,6.3,62,0.00,,---,0.00,VWS V15.00,2015-02-28 22:33:00,
2015-02-28 15:39:00,19.4,8.5,24.69,NNE,14,8.1,8.1,62,0.00,,---,0.00,VWS V15.00,2015-02-28 22:39:00,
2015-02-28 15:44:00,19.0,7.1,24.69,NE,44,3.1,5.4,59,0.00,,---,0.00,VWS V15.00,2015-02-28 22:44:00,
2015-02-28 15:50:00,19.2,8.7,24.69,NNE,17,5.4,5.4,63,0.00,,---,0.00,VWS V15.00,2015-02-28 22:50:00,
2015-02-28 15:55:00,19.2,9.1,25.10,SE,141,0.0,2.7,64,0.00,,---,0.00,VWS V15.00,2015-02-28 22:55:00,
2015-02-28 16:00:00,19.2,9.1,25.10,ENE,62,4.0,4.0,64,0.00,,---,0.00,VWS V15.00,2015-02-28 23:00:00,
2015-02-28 16:05:00,19.2,9.1,25.10,ENE,57,3.6,5.4,64,0.00,,---,0.00,VWS V15.00,2015-02-28 23:05:00,
2015-02-28 16:11:00,19.2,9.7,24.66,NNE,20,3.1,3.1,66,0.00,,---,0.00,VWS V15.00,2015-02-28 23:11:00,
2015-02-28 16:16:00,19.0,8.9,24.66,North,8,0.0,0.0,64,0.00,,---,0.00,VWS V15.00,2015-02-28 23:16:00,
2015-02-28 16:21:00,19.0,8.9,24.66,NE,56,2.7,6.3,64,0.00,,---,0.00,VWS V15.00,2015-02-28 23:21:00,
2015-02-28 16:26:00,19.0,9.2,24.48,NE,49,3.1,3.6,65,0.00,,---,0.00,VWS V15.00,2015-02-28 23:26:00,
2015-02-28 16:31:00,19.0,9.2,24.48,East,80,2.2,3.6,65,0.00,,---,0.00,VWS V15.00,2015-02-28 23:31:00,
2015-02-28 16:36:00,19.0,9.6,24.48,NE,50,0.0,0.0,66,0.00,,---,0.00,VWS V15.00,2015-02-28 23:36:00,
2015-02-28 16:41:00,19.0,9.9,24.72,East,89,0.0,2.2,67,0.00,,---,0.00,VWS V15.00,2015-02-28 23:41:00,
2015-02-28 16:46:00,19.0,10.2,24.72,North,8,0.0,3.6,68,0.00,,---,0.00,VWS V15.00,2015-02-28 23:46:00,
2015-02-28 16:51:00,19.0,10.2,24.72,North,357,0.0,0.0,68,0.00,,---,0.00,VWS V15.00,2015-02-28 23:51:00,
2015-02-28 16:56:00,19.2,10.7,24.86,East,93,0.0,0.0,69,0.00,,---,0.00,VWS V15.00,2015-02-28 23:56:00,
2015-02-28 17:01:00,19.2,10.7,24.86,North,5,0.0,0.0,69,0.00,,---,0.00,VWS V15.00,2015-03-01 00:01:00,
2015-02-28 17:06:00,19.2,10.7,24.86,NNE,13,0.0,0.0,69,0.00,,---,0.00,VWS V15.00,2015-03-01 00:06:00,
2015-02-28 17:11:00,19.2,10.7,25.10,NE,51,0.0,0.0,69,0.00,,---,0.00,VWS V15.00,2015-03-01 00:11:00,
2015-02-28 17:16:00,19.2,10.7,25.10,NE,51,0.0,0.0,69,0.00,,---,0.00,VWS V15.00,2015-03-01 00:16:00,
2015-02-28 17:21:00,19.0,10.6,25.10,NNE,20,0.0,0.0,69,0.00,,---,0.00,VWS V15.00,2015-03-01 00:21:00,
2015-02-28 17:26:00,19.0,10.9,24.78,NNE,20,0.0,0.0,70,0.00,,---,0.00,VWS V15.00,2015-03-01 00:26:00,
2015-02-28 17:31:00,19.0,10.9,24.78,NNE,20,0.0,0.0,70,0.00,,---,0.00,VWS V15.00,2015-03-01 00:31:00,
2015-02-28 17:36:00,19.0,10.9,24.78,NNE,20,0.0,0.0,70,0.00,,---,0.00,VWS V15.00,2015-03-01 00:36:00,
2015-02-28 17:41:00,19.0,10.9,24.66,NNE,20,0.0,0.0,70,0.00,,---,0.00,VWS V15.00,2015-03-01 00:41:00,
2015-02-28 17:46:00,18.9,10.7,24.66,NNE,20,0.0,0.0,70,0.00,,---,0.00,VWS V15.00,2015-03-01 00:46:00,
2015-02-28 17:51:00,18.9,10.7,24.66,NNE,20,0.0,0.0,70,0.00,,---,0.00,VWS V15.00,2015-03-01 00:51:00,
2015-02-28 17:56:00,18.9,10.7,25.01,NNE,20,0.0,0.0,70,0.00,,---,0.00,VWS V15.00,2015-03-01 00:56:00,
2015-02-28 18:01:00,18.7,10.9,25.01,NNE,20,0.0,0.0,71,0.00,,---,0.00,VWS V15.00,2015-03-01 01:01:00,
2015-02-28 18:06:00,18.7,10.9,25.01,NNE,20,0.0,0.0,71,0.00,,---,0.00,VWS V15.00,2015-03-01 01:06:00,
2015-02-28 18:11:00,18.5,10.7,25.10,NNE,20,0.0,0.0,71,0.00,,---,0.00,VWS V15.00,2015-03-01 01:11:00,
2015-02-28 18:17:00,18.5,10.7,25.10,NNE,20,0.0,0.0,71,0.00,,---,0.00,VWS V15.00,2015-03-01 01:17:00,
2015-02-28 18:22:00,18.3,10.5,25.10,NNE,20,0.0,0.0,71,0.00,,---,0.00,VWS V15.00,2015-03-01 01:22:00,
2015-02-28 18:27:00,18.3,10.5,24.66,NNE,20,0.0,0.0,71,0.00,,---,0.00,VWS V15.00,2015-03-01 01:27:00,
2015-02-28 18:32:00,18.3,10.5,24.66,NNE,20,0.0,0.0,71,0.00,,---,0.00,VWS V15.00,2015-03-01 01:32:00,
2015-02-28 18:37:00,18.3,10.5,24.66,NNE,20,0.0,0.0,71,0.00,,---,0.00,VWS V15.00,2015-03-01 01:37:00,
2015-02-28 18:42:00,18.3,10.5,25.04,NNE,20,0.0,0.0,71,0.00,,---,0.00,VWS V15.00,2015-03-01 01:42:00,
2015-02-28 18:48:00,18.3,10.5,25.04,NNE,20,0.0,0.0,71,0.00,,---,0.00,VWS V15.00,2015-03-01 01:48:00,
2015-02-28 18:53:00,18.3,10.5,24.98,NNE,20,0.0,0.0,71,0.00,,---,0.00,VWS V15.00,2015-03-01 01:53:00,
2015-02-28 18:59:00,18.3,10.5,24.98,NNE,20,0.0,0.0,71,0.00,,---,0.00,VWS V15.00,2015-03-01 01:59:00,
2015-02-28 19:05:00,18.1,10.3,24.98,NNE,20,0.0,0.0,71,0.00,,---,0.00,VWS V15.00,2015-03-01 02:05:00,
2015-02-28 19:10:00,18.1,10.3,24.57,NNE,20,0.0,0.0,71,0.00,,---,0.00,VWS V15.00,2015-03-01 02:10:00,
2015-02-28 19:15:00,18.1,10.6,24.57,NNE,20,0.0,0.0,72,0.00,,---,0.00,VWS V15.00,2015-03-01 02:15:00,
2015-02-28 19:20:00,18.1,10.6,24.57,NNE,20,0.0,0.0,72,0.00,,---,0.00,VWS V15.00,2015-03-01 02:20:00,
2015-02-28 19:26:00,18.1,10.6,24.45,NNE,20,0.0,0.0,72,0.00,,---,0.00,VWS V15.00,2015-03-01 02:26:00,
2015-02-28 19:31:00,18.1,10.6,24.45,NNE,20,0.0,0.0,72,0.00,,---,0.00,VWS V15.00,2015-03-01 02:31:00,
2015-02-28 19:36:00,18.1,10.6,24.45,NNE,20,0.0,0.0,72,0.00,,---,0.00,VWS V15.00,2015-03-01 02:36:00,
2015-02-28 19:41:00,18.1,10.6,24.57,NNE,20,0.0,0.0,72,0.00,,---,0.00,VWS V15.00,2015-03-01 02:41:00,
2015-02-28 19:47:00,18.0,10.5,24.57,NNE,20,0.0,0.0,72,0.00,,---,0.00,VWS V15.00,2015-03-01 02:47:00,
2015-02-28 19:52:00,17.8,10.3,24.57,NNE,20,0.0,0.0,72,0.00,,---,0.00,VWS V15.00,2015-03-01 02:52:00,
2015-02-28 19:57:00,17.6,10.1,24.78,NNE,20,0.0,0.0,72,0.00,,---,0.00,VWS V15.00,2015-03-01 02:57:00,
2015-02-28 20:02:00,17.4,9.9,24.78,NNE,20,0.0,0.0,72,0.00,,---,0.00,VWS V15.00,2015-03-01 03:02:00,
2015-02-28 20:07:00,17.4,9.9,24.78,NNE,20,0.0,0.0,72,0.00,,---,0.00,VWS V15.00,2015-03-01 03:07:00,
2015-02-28 20:13:00,17.1,9.6,24.66,NNE,20,0.0,0.0,72,0.00,,---,0.00,VWS V15.00,2015-03-01 03:13:00,
2015-02-28 20:18:00,16.7,9.3,24.66,NNE,20,0.0,0.0,72,0.00,,---,0.00,VWS V15.00,2015-03-01 03:18:00,
2015-02-28 20:23:00,16.5,9.1,24.66,NNE,20,0.0,0.0,72,0.00,,---,0.00,VWS V15.00,2015-03-01 03:23:00,
2015-02-28 20:28:00,16.2,8.4,24.42,NNE,20,0.0,0.0,71,0.00,,---,0.00,VWS V15.00,2015-03-01 03:28:00,
2015-02-28 20:33:00,15.8,8.4,24.42,NNE,20,0.0,0.0,72,0.00,,---,0.00,VWS V15.00,2015-03-01 03:33:00,
2015-02-28 20:38:00,15.6,8.2,24.42,NNE,20,0.0,0.0,72,0.00,,---,0.00,VWS V15.00,2015-03-01 03:38:00,
2015-02-28 20:43:00,15.4,8.0,24.75,NNE,20,0.0,0.0,72,0.00,,---,0.00,VWS V15.00,2015-03-01 03:43:00,
2015-02-28 20:48:00,15.3,7.9,24.75,NNE,20,0.0,0.0,72,0.00,,---,0.00,VWS V15.00,2015-03-01 03:48:00,